Location: Township of South Roscoe
(37.9570°N, 100.1180°W)
Time: 04:00:47
(UTC+00:00)

PRISM - Pass Details

Date: 06 July 2022
Orbit: 554 x 578 km, 98.2° (Epoch: 14 August)

Event Time Altitude Azimuth Distance (km) Brightness Sun altitude
Rises 10:44:12 0° 32° (NNE) 2,740 ? -7.5°
Reaches altitude 10° 10:47:00 10° 54° (NE) 1,840 ? -7.0°
Maximum altitude 10:49:34 17° 94° (E) 1,464 ? -6.6°
Drops below altitude 10° 10:52:08 10° 135° (SE) 1,833 ? -6.2°
Sets 10:54:54 0° 156° (SSE) 2,725 ? -5.7°
